Cloud_Cover
98 15 29 10 20 42 54 100 100 100 100 100 100 100 100 100 100 100 100 99 7 0 0 0 0 0 0 0 0 0 0 0 0 0 0 0 24 99 58 63 2 43 1 0 0 0 0
63 1 11 5 43 88 44 100 100 100 100 100 100 100 100 100 100 100 95 80 0 0 0 0 0 35 0 0 0 0 0 0 0 0 0 0 31 34 86 59 31 13 0 2 0 0 2
10 7 29 32 39 20 31 100 100 100 100 100 100 100 100 100 100 100 66 0 0 0 0 0 0 0 0 0 0 0 0 0 0 0 0 0 0 2 10 12 4 0 50 100 76 0 0
0 0 0 0 4 42 79 100 100 100 100 100 100 100 100 100 100 97 10 0 0 0 0 0 0 0 0 0 0 0 0 0 0 0 0 0 0 0 5 4 0 13 57 100 40 0 0
0 0 0 0 0 8 78 100 100 100 100 100 100 100 100 100 100 58 0 0 0 0 0 1 0 0 0 0 0 0 0 0 0 0 0 0 0 0 9 14 91 98 99 2 95 0 0
14 5 3 5 2 0 43 100 100 100 100 100 100 100 100 100 69 4 0 0 2 25 9 0 0 0 0 0 0 0 0 0 0 0 0 0 0 0 7 91 60 46 94 95 10 43 1
67 100 71 31 17 19 12 93 100 100 100 100 100 100 99 100 6 0 0 0 0 0 0 0 0 0 0 0 0 0 0 0 0 0 0 0 0 1 92 100 98 97 2 42 44 4 12
100 100 100 100 100 84 67 72 100 100 100 100 100 100 100 100 8 0 3 0 0 0 0 0 0 0 0 0 0 0 0 0 0 0 0 0 0 29 99 88 32 5 38 68 16 33 99
100 100 100 100 100 100 100 99 90 100 100 100 100 100 99 1 0 3 0 0 0 0 0 0 0 0 0 0 0 0 0 0 0 0 0 4 67 4 80 8 0 0 81 84 1 58 88
100 100 100 100 100 100 100 100 42 48 100 100 100 100 1 0 33 0 0 0 0 0 0 0 0 0 0 0 0 0 0 0 0 0 1 3 9 1 0 0 18 100 79 0 6 96 100
59 100 100 100 100 100 100 100 76 58 100 100 100 100 7 73 0 0 0 0 0 0 6 0 0 0 0 0 0 0 0 0 0 0 0 0 0 0 0 0 24 90 25 0 0 5 100
3 100 100 100 100 100 100 100 86 71 96 100 100 100 0 0 0 0 0 0 0 0 19 0 0 0 0 0 3 5 3 3 0 0 0 1 0 0 0 0 10 1 0 0 0 14 100
0 96 100 100 100 100 100 100 100 97 88 100 100 98 28 0 0 0 0 0 0 0 6 2 0 0 0 5 5 5 5 5 5 1 0 0 0 0 0 4 1 0 0 42 76 74 42
0 77 100 100 100 100 100 100 100 94 75 84 12 94 2 4 0 0 0 0 0 32 59 5 4 4 2 5 5 5 5 8 5 3 20 2 0 0 0 0 3 4 48 100 100 100 97
0 2 100 100 100 100 100 100 100 86 63 73 22 0 0 0 5 0 0 0 4 67 100 5 25 5 5 3 5 5 5 5 5 0 12 100 77 33 0 0 0 5 2 92 100 100 100
11 30 100 100 100 100 100 100 100 71 14 12 0 0 0 0 5 3 0 0 15 56 100 24 40 10 51 1 5 5 7 11 2 4 48 100 99 82 0 0 0 3 10 3 100 86 48
7 16 100 100 100 100 100 100 100 18 0 0 0 0 0 0 0 1 0 0 50 59 6 8 64 66 98 5 7 5 15 47 59 10 5 6 98 98 4 0 1 0 0 0 80 100 100
28 52 100 100 100 100 100 100 99 12 0 34 0 31 0 0 0 0 0 0 53 6 0 5 90 90 90 5 42 31 99 92 14 5 5 0 44 100 30 70 2 53 20 3 38 7 62
98 51 100 100 100 100 100 100 61 22 19 6 0 5 0 0 0 0 0 33 37 9 5 5 11 100 96 99 41 100 100 72 7 5 5 4 1 69 50 99 100 17 0 0 2 86 100
6 88 100 100 91 100 100 42 0 0 4 13 1 76 0 0 0 3 19 3 5 0 26 85 78 96 90 100 100 54 15 68 20 73 5 3 2 48 100 100 96 17 8 11 73 15 87
5 95 100 100 99 100 100 10 0 0 0 3 1 89 100 0 0 0 19 100 14 58 0 3 2 13 99 100 70 100 87 56 13 62 5 5 0 0 96 84 100 100 56 93 97 27 3
76 100 100 100 100 100 100 98 1 0 4 0 0 8 30 5 82 1 3 5 72 68 61 0 13 99 5 100 70 32 99 15 100 86 72 5 0 0 0 44 96 100 100 92 8 5 0
100 100 100 100 100 100 100 100 81 0 0 0 0 0 0 0 1 19 5 4 5 35 98 16 5 25 100 26 36 94 100 55 83 99 44 5 1 0 0 0 0 2 4 4 2 5 4
100 100 100 100 100 68 92 100 99 0 6 0 0 5 5 4 46 100 81 100 100 98 61 70 10 37 59 92 42 100 96 93 98 100 78 5 5 0 0 0 0 0 1 0 1 0 0
100 100 100 100 100 100 92 100 94 0 0 0 2 5 25 63 38 54 56 5 34 1 0 44 16 82 6 99 4 5 37 90 100 100 97 51 46 6 5 0 0 0 3 5 5 0 6
100 100 100 100 100 100 100 100 28 0 0 0 3 5 6 7 68 5 4 4 2 9 0 0 0 0 0 0 0 0 0 5 45 79 100 7 81 14 21 8 20 31 100 7 2 0 23
98 100 100 100 100 100 100 100 100 5 2 0 0 0 5 14 5 5 5 0 1 4 77 80 35 0 0 5 4 3 5 61 10 96 36 87 69 43 28 6 52 4 54 100 4 3 4
100 100 86 100 91 28 66 100 100 99 31 5 0 0 0 0 0 4 5 0 3 0 21 82 56 3 1 5 4 5 10 89 29 5 7 5 45 66 6 21 71 70 51 5 5 5 5
100 100 98 49 14 16 50 100 100 100 100 8 5 5 2 0 0 0 5 14 5 5 0 0 6 5 4 65 100 23 73 31 8 36 5 3 3 48 12 8 5 5 60 39 7 5 5